Weather in Midland

Canada     44°45′16″N   79°54′01″W
temp.,
°C
wind,
m/s
gust,
m/s
humid.,
%
clouds,
%
prec.,
mm/h
press.,
hPa
HPBL,
m
10 may, mon
mon1023:00+4wnw45743 0.0 101461
02:00+2w46820 0.0 1014120
05:00+3w46925 0.0 1014135
08:00+4wnw579241 0.0 1016320
11:00+5wnw578723 0.0 1016569
14:00+6nw687820 0.0 1016608
17:00+6wnw587465 0.0 1016607
20:00+5w712743 0.0 1017388
11 may, tue
tue1123:00+3w811865 0.0 1017304
02:00+3wnw799335 0.0 1017318
05:00+3wnw6109127 0.0 1017552
08:00+3wnw9118496 0.0 1018732
11:00+3wnw9128386 0.0 1019838
14:00+2wnw91197100 0.3 1019565
17:00+3wnw81198100 1.1 1020542
20:00+4nw81290100 1.3 1021411
12 may, wed
wed1223:00+4nw7138986 0.0 1023412
02:00+4nw7129315 0.0 1023396
05:00+3nw59945 0.0 1025257
08:00+4nw58885 0.0 1027286
11:00+6nw68722 0.0 1028387
14:00+7wnw710711 0.0 1027455
17:00+8wnw610655 0.0 1026365
20:00+6wnw511745 0.0 1027191
13 may, thu
thu1323:00+5w48816 0.0 1028113
02:00+4w47845 0.0 102899
05:00+3w46904 0.0 102884
08:00+5w46855 0.0 1029141
11:00+7wnw46785 0.0 1029203
14:00+9nw46660 0.0 1027259
17:00+9wnw48670 0.0 1026223
20:00+8wnw36775 0.0 102685
14 may, fri
fri1423:00+6w33795 0.0 102632
02:00+5w33787 0.0 102634
05:00+5wsw227573 0.0 102618
08:00+7wsw236998 0.0 102679
11:00+9wnw3469100 0.0 1026210
14:00+11nw3567100 0.0 1025293
17:00+11nw3564100 0.0 1024196
20:00+8nw227657 0.0 102423